THOR ABLESTAR DEB, 323

Orbit data source: Space-Track

THOR ABLESTAR DEB, 323 is space debris in LEO originally from a launch on Thu, 29 Jun 1961 UTC launched from the Air Force Eastern Test Range (AFETR). Debris objects in space refer to the collection of defunct objects orbiting the Earth. Examples of debris include non-operational satellites, rocket bodies, and fragments generated from explosions, collisions, or faulty payload assembly.

Loading next visibility...
Identifier
323, 1961-015CZ
Orbit
LEO
Country
Flag of USUS
Related business
Manufacturer
Unknown
Mission
Spacecraft
Bus & Motor
Unknown
Mass
Unknown
Launch date (UTC)
1961-06-29 (65 years ago)
Launch vehicle
Unknown
Launch site
Air Force Eastern Test Range (AFETR)
Object type
Payload
Rocket body
Debris
Shape & HBR
Unknown shape, 0.1 m
Radar Cross Section
Medium (>0.1 m² and <1 m²)

Expand to show TLE details & history
Last TLE update: 1 day ago

TLE from 1 day ago
0 THOR ABLESTAR DEB
1 00323U 61015CZ  26173.15200882  .00000658  00000-0  36297-3 0  9995
2 00323  66.8387  86.8860 0068986  82.7760 278.1168 14.16455031329176
Epoch: 2026-06-22T03:38Z
TLE epoch observation values (Epoch: 2026-06-22T03:38:53.562Z)
Latitude
-0°
Longitude
121.82079°
Altitude
832.779 km
Speed
7.44 km/s
True Right ascension
05h 47m 32s
True Declination
0° 00' 00"
Sunlit
Object was in daylight at epoch
Visualization orbit readout
Latitude
Unknown
Longitude
Unknown
Altitude
Unknown
Speed
Unknown
Apparent Right ascension
Unknown
Apparent Declination
Unknown
Sunlit
N/A
Visualization observer readout
Local Sidereal Time
20:07:30
Azimuth
Unknown
Elevation
Unknown
Doppler factor
Unknown
Orbital elements
Apogee altitude
885.501 km
Perigee altitude
785.97 km
Semi-major axis
7,213.873 km
Eccentricity
0.0069
Inclination
66.8387°
RAAN
86.886°
Arg. of periapsis
82.776°
True anomaly
277.33327°
Mean anomaly
278.1168°
Eccentric anomaly
277.72513°
Mean motion
3.54234 °/min
Orbital period
101.63 mins
BSTAR
0.00036297
Loading maneuver chart data...
Computing Atmospheric mass density...

Documentation

Showing up to 5 results
|